sat.trackr.live / text

‹ back to catalog

STARLINK-35409

NORAD 66196 · 2025-243V

PAYLOAD ACTIVE UNKNOWN

§ Identity

Operator
Country
US
Launch date
2025-10-26
Launch site
AFETR
Launch vehicle
Mass (kg)
RCS (m²)

Purposes: comms

External: N2YO · Heavens-Above · Gunter

§ Orbital elements

Epoch: 2026-09-19T23:34:32.136096Z

Period
93.85 min
Inclination
53.1613°
Eccentricity
0.0001054
Mean motion
15.34407123 rev/d
Perigee alt
462.0 km
Apogee alt
463.4 km
Semi-major
6,840.8 km
B*
5.3291e-4
RAAN
61.8795°
Arg perigee
89.9284°
Mean anomaly
270.1840°
Rev number
5,041

§ Raw data

STARLINK-354091 66196U 25243V   26262.98231639  .00017675  00000+0  53291-3 0  99912 66196  53.1613  61.8795 0001054  89.9284 270.1840 15.34407123 50417

JSON: /api/v1/satellites/66196 · /tle

For live sub-satellite position, see the globe view (requires WebGL).

§ Visibility from observer

Set your observer location to see the next 7 days of passes ≥ 10°. The values pass through the URL so the page stays shareable.

No JS? Fill the form by hand. The geolocation button needs JavaScript.